Wind_Speed
4 5 7 9 11 14 16 17 19 22 25 26 28 29 30 32 33 34 34 34 35 35 36 36 37 38 38 39 40 41 42 42 43 42 42 43 43 44 44 44 45 45 46 45
3 3 4 6 8 10 13 14 16 18 20 22 24 25 27 29 30 30 31 32 33 33 34 35 36 37 37 37 39 40 41 42 42 42 42 42 43 43 43 44 44 44 45 44
1 0 2 3 5 6 8 11 13 15 16 18 21 22 23 25 26 27 29 30 31 31 32 32 33 34 34 34 35 37 37 38 39 40 40 41 42 42 42 44 44 44 45 44
3 2 0 2 3 4 6 7 9 11 13 14 16 17 18 20 22 24 26 27 29 30 29 30 30 30 31 32 33 35 36 36 37 38 39 40 41 41 41 43 43 44 44 43
4 3 2 1 2 3 4 6 7 9 11 12 13 14 14 16 18 20 22 23 25 26 27 27 28 29 30 31 32 33 34 35 36 37 37 38 39 39 40 41 42 42 42 42
7 5 3 2 2 3 4 5 7 8 9 11 12 12 12 13 14 16 19 21 23 24 25 26 27 28 29 30 31 32 33 34 34 35 35 36 36 37 37 38 40 41 41 40
8 6 5 3 3 3 4 5 6 7 8 8 10 11 10 12 13 14 16 17 19 21 24 25 26 27 28 29 30 31 32 32 33 33 34 35 35 35 35 36 37 38 38 38
9 8 7 5 4 3 4 4 5 7 7 7 8 9 9 10 11 13 14 16 17 18 19 21 23 24 26 28 29 30 30 30 31 31 32 33 34 34 34 34 35 35 36 36
10 9 7 6 5 4 4 4 5 6 6 6 7 7 7 8 10 11 13 14 16 16 17 19 21 22 24 26 27 28 28 28 28 28 29 30 31 31 32 33 33 33 33 33
10 9 9 8 6 5 4 4 5 6 6 7 6 6 6 7 9 10 12 13 14 16 16 18 19 20 21 23 24 25 25 25 26 26 27 28 28 29 30 31 31 31 32 31
9 9 9 8 7 6 6 5 6 7 8 9 8 8 8 8 9 10 12 13 14 14 15 15 16 16 17 18 20 21 22 22 23 24 25 26 27 28 28 28 28 28 29 28
10 10 9 8 8 8 7 7 8 8 9 10 10 9 10 11 11 12 12 12 12 12 12 13 13 13 13 14 15 17 19 20 20 21 21 21 23 23 24 25 25 25 25 26
11 10 10 9 9 10 10 10 9 10 10 10 10 10 11 11 12 12 12 12 11 11 11 12 12 13 13 13 13 13 15 16 17 18 18 18 19 20 21 22 22 23 23 24
12 11 12 12 12 12 12 12 11 11 11 11 11 11 11 12 12 12 12 12 11 11 10 10 10 11 11 11 12 12 12 14 15 15 16 16 17 17 18 19 21 21 22 22
14 13 14 14 15 14 13 13 13 13 12 12 11 12 12 13 12 12 12 12 11 10 10 9 8 9 10 11 11 12 12 12 13 14 14 14 15 16 16 17 19 19 20 21
16 16 16 16 16 16 15 14 14 14 14 13 12 12 13 13 13 13 13 12 11 10 9 9 9 9 9 10 10 11 11 11 12 13 14 15 15 15 15 16 17 18 18 18
19 19 18 17 18 19 17 16 15 15 15 14 13 12 13 13 13 13 13 12 11 10 10 9 9 10 9 10 10 11 11 11 12 13 14 15 15 15 15 15 16 17 17 17
21 21 21 21 20 21 19 18 17 16 16 15 14 14 14 14 13 13 13 12 12 11 11 10 10 10 10 11 11 12 13 13 13 14 15 16 17 16 16 16 16 17 17 18
23 23 24 24 23 21 20 19 19 18 17 16 16 16 15 15 14 14 14 13 12 12 11 11 11 11 11 11 12 13 14 15 16 15 16 16 17 17 16 16 17 17 18 18
26 26 26 26 25 23 20 19 20 21 20 19 18 17 17 16 16 15 15 15 14 13 13 13 13 14 13 14 14 14 14 15 16 16 16 17 17 18 18 18 18 19 19 19
29 29 28 28 28 25 23 21 21 22 22 22 21 20 19 19 18 17 17 17 16 16 15 15 15 15 15 15 15 16 16 17 17 18 18 18 18 19 19 20 20 20 20 20
33 32 31 30 30 28 26 25 25 24 24 24 23 23 22 21 20 20 20 19 19 19 18 17 17 17 17 17 17 18 18 19 19 20 20 20 20 21 21 21 22 22 21 22
36 35 35 34 32 30 29 29 28 28 27 27 26 24 24 23 22 21 21 21 21 21 21 20 19 19 19 19 19 20 21 21 21 21 21 20 20 21 22 22 23 23 23 24
38 37 37 36 32 31 32 31 31 31 30 29 27 26 26 25 24 23 23 22 22 22 23 23 22 22 21 21 21 21 22 22 22 22 23 23 22 23 24 25 25 25 25 25
40 39 37 36 34 34 34 34 33 32 32 31 29 28 28 27 27 26 25 24 24 24 24 24 24 24 24 23 23 22 23 23 23 24 24 25 25 25 25 25 25 26 26 27
38 38 38 37 35 36 35 35 35 34 33 32 32 30 29 29 28 27 27 26 26 25 25 25 26 26 26 26 25 24 24 24 25 25 26 27 27 27 27 28 28 29 29 29
Wind_Direction
196 213 226 229 231 234 236 237 238 241 241 242 242 243 244 245 247 248 249 250 250 251 250 251 249 248 248 248 248 249 249 249 249 250 251 250 250 250 250 250 250 250 251 252
172 212 239 244 241 239 238 239 241 242 244 245 245 246 247 249 250 250 250 251 251 252 252 251 250 249 249 249 249 249 249 249 250 250 251 250 250 249 249 248 248 249 249 252
110 178 240 252 246 241 240 242 244 246 247 249 250 249 249 250 250 251 252 252 253 253 253 253 252 250 250 249 248 247 248 249 250 251 251 250 250 250 251 248 248 248 249 251
64 56 343 265 243 239 239 244 245 246 247 250 253 253 249 248 250 251 252 252 253 253 253 252 251 251 250 249 248 247 247 249 250 251 252 251 249 250 250 248 246 248 250 253
45 33 16 309 273 260 256 254 251 248 248 252 256 254 249 251 252 253 252 252 252 252 252 252 252 251 249 249 248 247 248 249 251 252 252 250 250 250 251 247 246 248 250 254
35 28 16 342 298 281 270 262 261 257 257 260 261 256 251 255 257 255 253 253 254 253 252 253 252 251 250 250 248 248 248 249 251 252 250 250 249 250 250 248 248 248 250 253
27 22 10 354 324 294 276 269 272 272 271 271 268 265 262 258 260 260 260 259 258 258 255 253 253 253 251 251 250 248 247 250 252 252 251 250 249 250 250 249 249 249 250 253
15 14 11 4 345 313 288 279 277 279 280 276 273 273 268 263 262 264 264 263 262 260 258 255 254 253 252 251 250 249 249 249 250 252 251 250 251 250 250 249 249 249 251 253
10 9 7 1 348 326 294 288 285 287 289 289 285 282 279 272 270 270 268 267 266 263 261 258 256 255 253 253 251 249 248 248 249 251 251 251 250 250 250 249 248 248 250 254
4 6 3 353 346 336 317 302 300 300 301 304 305 306 295 287 279 276 274 272 270 267 264 260 257 255 254 251 249 245 246 248 249 249 250 251 250 250 250 249 249 250 252 253
355 352 351 347 344 334 322 309 302 301 302 305 307 312 310 301 291 285 280 279 279 274 270 266 260 258 257 253 249 247 250 252 252 251 249 250 250 251 252 251 252 251 253 255
341 340 341 342 338 332 323 313 304 300 300 300 303 307 308 307 303 295 287 285 281 276 271 269 265 261 260 258 254 250 249 251 250 248 248 249 248 248 249 250 249 252 255 255
331 329 326 326 324 321 317 314 311 308 303 303 306 307 306 307 307 304 300 293 286 280 276 274 267 263 259 255 252 250 250 248 246 247 246 245 244 245 245 248 251 254 255 256
317 317 316 315 313 312 308 305 305 307 307 304 304 304 304 306 307 307 306 300 292 284 282 278 265 258 252 247 247 247 249 248 247 246 245 242 242 243 246 249 250 254 255 257
308 307 307 307 304 303 302 300 298 298 302 303 301 299 301 302 303 302 303 300 295 289 282 275 265 257 253 249 248 251 248 246 242 239 241 243 245 248 251 253 254 256 258 259
301 301 301 302 300 298 297 296 294 294 296 298 300 302 300 299 301 300 300 299 297 292 282 272 263 261 256 251 252 252 244 242 241 240 244 246 248 252 255 255 256 257 258 261
297 295 295 296 295 294 293 293 289 289 290 292 296 301 300 301 301 300 300 299 294 287 277 273 265 258 257 255 253 252 247 246 244 245 247 249 250 253 255 255 255 256 258 260
294 293 292 291 290 290 294 288 283 281 283 285 288 293 296 299 300 298 296 295 291 285 277 269 263 261 260 258 256 253 250 248 248 249 251 254 255 257 258 259 260 260 259 261
290 290 291 291 290 289 288 285 280 277 276 279 282 286 288 290 293 293 291 292 291 285 279 270 263 263 262 260 256 255 251 250 250 253 253 253 255 256 259 262 262 264 265 265
285 286 287 289 289 289 288 282 277 275 272 273 277 280 281 283 284 284 285 285 286 283 277 270 266 263 263 261 258 255 253 252 253 253 254 255 256 255 259 262 263 265 267 267
282 282 284 286 286 286 286 282 278 276 277 274 273 275 277 279 280 279 278 281 280 279 277 273 269 265 263 262 259 256 253 253 254 254 256 258 257 258 261 261 262 264 267 270
280 281 282 282 283 283 283 280 276 274 274 274 272 272 272 274 274 275 277 279 278 277 275 272 270 267 264 264 263 261 259 258 258 257 257 259 259 261 263 263 263 263 268 272
278 280 279 278 279 279 279 277 275 273 271 272 271 270 270 269 271 271 274 275 276 274 272 271 268 267 268 267 266 265 262 260 259 258 258 259 260 262 263 264 265 266 270 272
277 278 277 275 273 272 273 273 272 270 269 270 269 268 267 268 268 268 270 273 275 273 270 268 267 267 268 270 270 268 265 261 259 259 259 259 262 264 264 265 267 270 272 275
278 278 276 274 272 269 269 270 270 269 267 266 266 267 267 268 268 267 268 269 272 271 269 267 265 264 266 268 269 270 267 261 259 259 260 261 263 266 266 266 268 271 274 276
277 277 275 274 271 269 268 268 267 266 265 264 264 265 267 267 266 266 267 267 268 270 267 265 263 263 264 266 268 268 269 266 264 263 263 263 265 267 268 268 269 271 273 276
Height
5677 5680 5681 5682 5684 5687 5688 5690 5692 5694 5695 5697 5699 5701 5703 5704 5705 5707 5708 5710 5711 5713 5714 5715 5717 5719 5721 5723 5726 5728 5731 5733 5736 5738 5740 5743 5745 5748 5750 5753 5756 5758 5761 5762
5679 5680 5681 5682 5683 5685 5686 5688 5689 5691 5692 5693 5694 5696 5697 5697 5698 5699 5701 5702 5704 5705 5706 5708 5709 5711 5712 5714 5716 5718 5721 5723 5725 5728 5730 5732 5735 5737 5740 5743 5746 5748 5750 5752
5680 5681 5681 5682 5682 5683 5685 5686 5687 5688 5688 5689 5690 5691 5692 5692 5692 5693 5694 5695 5696 5698 5699 5700 5701 5702 5704 5705 5707 5709 5711 5713 5716 5718 5720 5722 5724 5727 5730 5733 5736 5738 5741 5743
5681 5681 5681 5681 5682 5682 5683 5684 5684 5685 5686 5686 5686 5686 5687 5687 5687 5687 5687 5688 5689 5690 5691 5692 5693 5694 5696 5697 5699 5700 5703 5705 5707 5709 5710 5712 5714 5717 5720 5722 5725 5728 5731 5733
5682 5682 5681 5681 5681 5681 5682 5682 5682 5683 5683 5683 5683 5682 5684 5682 5682 5682 5682 5682 5682 5683 5684 5685 5686 5687 5688 5690 5691 5693 5694 5696 5698 5700 5701 5703 5705 5707 5709 5712 5715 5718 5721 5723
5683 5682 5681 5681 5680 5680 5680 5680 5680 5680 5680 5681 5680 5679 5680 5678 5678 5677 5677 5677 5677 5677 5677 5678 5679 5680 5681 5682 5684 5685 5687 5688 5690 5691 5692 5694 5696 5698 5700 5703 5705 5709 5712 5714
5685 5684 5682 5680 5679 5679 5679 5679 5679 5678 5678 5678 5676 5675 5677 5675 5674 5673 5673 5672 5672 5671 5671 5672 5672 5673 5674 5675 5676 5677 5679 5681 5682 5683 5684 5686 5688 5690 5692 5694 5697 5700 5703 5705
5686 5685 5683 5681 5680 5678 5678 5678 5678 5677 5676 5675 5674 5673 5674 5671 5670 5669 5669 5668 5667 5666 5666 5665 5665 5666 5666 5667 5668 5670 5671 5673 5674 5676 5677 5679 5681 5682 5685 5687 5689 5692 5695 5697
5686 5685 5683 5681 5679 5678 5677 5676 5676 5675 5674 5673 5672 5671 5670 5668 5667 5665 5665 5664 5663 5662 5661 5660 5659 5659 5660 5660 5661 5662 5664 5666 5667 5669 5670 5672 5673 5675 5677 5679 5682 5684 5686 5688
5687 5685 5683 5681 5679 5678 5677 5676 5675 5673 5672 5671 5670 5668 5668 5666 5664 5663 5661 5659 5658 5657 5656 5655 5654 5654 5653 5654 5654 5655 5657 5659 5660 5662 5663 5665 5667 5669 5670 5672 5675 5677 5679 5681
5686 5685 5684 5681 5679 5677 5676 5675 5673 5671 5670 5668 5667 5669 5665 5663 5661 5660 5658 5656 5654 5652 5651 5650 5649 5648 5648 5648 5648 5650 5651 5653 5654 5656 5657 5659 5661 5663 5664 5666 5668 5670 5672 5674
5686 5684 5682 5681 5679 5676 5675 5673 5672 5671 5669 5666 5664 5667 5662 5660 5658 5656 5654 5652 5650 5648 5647 5645 5644 5644 5643 5643 5644 5645 5646 5648 5649 5650 5652 5653 5655 5657 5659 5660 5662 5664 5665 5667
5684 5683 5681 5679 5679 5676 5673 5671 5669 5668 5666 5663 5662 5664 5659 5657 5654 5652 5650 5648 5646 5644 5643 5641 5641 5640 5640 5639 5640 5641 5642 5643 5644 5646 5647 5649 5651 5652 5654 5655 5657 5658 5660 5661
5682 5680 5679 5678 5675 5672 5670 5669 5667 5665 5663 5661 5660 5658 5657 5653 5651 5649 5647 5644 5642 5641 5640 5638 5637 5637 5636 5636 5637 5637 5638 5639 5640 5642 5643 5645 5647 5648 5649 5650 5652 5653 5654 5655
5679 5678 5675 5673 5671 5669 5667 5665 5663 5661 5660 5658 5657 5654 5653 5650 5648 5646 5643 5641 5639 5638 5636 5635 5634 5634 5633 5633 5634 5634 5634 5635 5636 5638 5640 5641 5643 5644 5645 5646 5647 5648 5648 5649
5675 5673 5672 5670 5667 5664 5663 5662 5660 5658 5656 5654 5652 5651 5649 5647 5644 5642 5640 5638 5636 5634 5633 5632 5632 5631 5631 5631 5631 5631 5631 5632 5633 5635 5636 5637 5638 5639 5640 5641 5642 5642 5643 5644
5670 5668 5666 5665 5663 5660 5659 5658 5655 5654 5652 5650 5648 5648 5645 5643 5641 5638 5636 5634 5632 5631 5630 5629 5628 5628 5628 5628 5628 5628 5628 5629 5630 5631 5632 5633 5634 5635 5635 5636 5637 5637 5638 5638
5664 5662 5660 5658 5658 5655 5657 5653 5651 5649 5647 5646 5644 5643 5641 5639 5637 5635 5633 5631 5629 5627 5627 5626 5625 5625 5624 5624 5624 5624 5625 5625 5626 5627 5628 5629 5629 5630 5631 5631 5632 5632 5632 5633
5658 5655 5653 5652 5649 5648 5650 5647 5644 5643 5642 5641 5639 5638 5636 5634 5632 5631 5629 5627 5625 5624 5623 5622 5621 5621 5621 5620 5620 5620 5620 5621 5622 5622 5623 5624 5624 5625 5625 5626 5626 5626 5626 5627
5650 5648 5647 5644 5642 5641 5644 5641 5638 5637 5636 5635 5633 5632 5631 5629 5628 5627 5624 5623 5621 5620 5618 5618 5617 5617 5616 5616 5616 5616 5616 5616 5617 5617 5618 5618 5619 5620 5620 5620 5621 5621 5621 5620
5642 5640 5639 5636 5633 5634 5636 5633 5631 5630 5631 5628 5626 5626 5625 5623 5623 5621 5619 5617 5616 5615 5614 5613 5612 5612 5611 5611 5611 5611 5611 5611 5611 5612 5612 5613 5613 5614 5614 5614 5614 5614 5614 5614
5632 5630 5630 5627 5625 5628 5627 5624 5623 5622 5621 5619 5618 5618 5617 5617 5615 5615 5613 5612 5611 5610 5609 5608 5607 5606 5606 5606 5605 5605 5605 5605 5605 5606 5606 5606 5607 5607 5607 5607 5607 5608 5607 5607
5622 5621 5619 5619 5620 5618 5616 5614 5613 5612 5611 5610 5610 5610 5609 5609 5608 5607 5607 5605 5604 5603 5603 5602 5601 5601 5600 5599 5599 5598 5598 5598 5599 5599 5599 5599 5600 5600 5600 5600 5600 5600 5600 5600
5610 5609 5607 5606 5608 5607 5604 5603 5602 5602 5601 5601 5601 5601 5601 5600 5600 5600 5599 5598 5597 5596 5596 5595 5595 5594 5594 5593 5592 5591 5591 5591 5591 5592 5592 5592 5593 5593 5593 5593 5593 5593 5592 5592
5598 5596 5594 5593 5595 5594 5593 5592 5591 5591 5590 5591 5591 5591 5591 5591 5591 5591 5591 5590 5589 5588 5588 5587 5587 5587 5586 5586 5585 5584 5584 5583 5583 5584 5584 5585 5585 5585 5585 5585 5585 5585 5584 5583
5587 5584 5581 5581 5583 5580 5581 5581 5580 5579 5580 5580 5580 5581 5581 5581 5582 5582 5581 5581 5580 5580 5579 5579 5579 5579 5578 5578 5577 5577 5576 5576 5576 5576 5576 5576 5576 5576 5576 5576 5576 5575 5575 5574